HVN1 VVCI-VVDL

Flight info

Callsign HVN1
Flight time 1h 23m
Altitude 36000
Route LOCHA1C LOCHA Q10 VIDAD Q1 BMT BMT1L
Aircraft A321/M-SDE2E3FGHIRWXY/LB1

Departure

Time 2026-04-18 08:07
Airport Cat Bi International Airport (VVCI)

Arrival

Time 2026-04-18 09:31
Airport Lien Khuong Airport (VVDL)
Time Latitude Longitude Altitude Speed Heading
2026-04-18 07:54 20.82165 106.72553 21 ft 0 kts 342°
2026-04-18 07:55 20.82154 106.72556 21 ft 2 kts 341°
2026-04-18 07:55 20.82139 106.72562 21 ft 2 kts 340°
2026-04-18 07:56 20.82124 106.72568 21 ft 2 kts 337°
2026-04-18 07:56 20.82109 106.72575 21 ft 2 kts 333°
2026-04-18 07:56 20.82095 106.72583 21 ft 2 kts 325°
2026-04-18 07:56 20.82083 106.72594 21 ft 2 kts 307°
2026-04-18 07:57 20.82076 106.72606 21 ft 2 kts 271°
2026-04-18 07:57 20.82079 106.72620 21 ft 2 kts 251°
2026-04-18 07:57 20.82083 106.72636 21 ft 2 kts 251°
2026-04-18 07:57 20.82085 106.72640 21 ft 0 kts 251°
2026-04-18 07:59 20.82084 106.72639 21 ft 3 kts 251°
2026-04-18 07:59 20.82061 106.72584 21 ft 9 kts 251°
2026-04-18 07:59 20.82041 106.72519 21 ft 9 kts 253°
2026-04-18 08:00 20.82024 106.72458 21 ft 9 kts 253°
2026-04-18 08:00 20.82012 106.72418 21 ft 8 kts 252°
2026-04-18 08:00 20.81986 106.72330 21 ft 10 kts 252°
2026-04-18 08:00 20.81961 106.72256 21 ft 11 kts 233°
2026-04-18 08:01 20.81917 106.72236 21 ft 11 kts 177°
2026-04-18 08:01 20.81819 106.72266 21 ft 12 kts 162°
2026-04-18 08:01 20.81764 106.72285 21 ft 13 kts 162°
2026-04-18 08:01 20.81689 106.72274 21 ft 10 kts 248°
2026-04-18 08:02 20.81660 106.72190 21 ft 14 kts 252°
2026-04-18 08:02 20.81628 106.72081 21 ft 17 kts 252°
2026-04-18 08:02 20.81594 106.71966 21 ft 16 kts 252°
2026-04-18 08:02 20.81561 106.71858 21 ft 15 kts 252°
2026-04-18 08:03 20.81532 106.71758 21 ft 14 kts 252°
2026-04-18 08:03 20.81503 106.71664 21 ft 13 kts 252°
2026-04-18 08:03 20.81477 106.71574 21 ft 12 kts 252°
2026-04-18 08:03 20.81451 106.71487 21 ft 12 kts 252°
2026-04-18 08:04 20.81426 106.71403 21 ft 12 kts 252°
2026-04-18 08:04 20.81402 106.71323 21 ft 11 kts 252°
2026-04-18 08:04 20.81379 106.71247 21 ft 11 kts 252°
2026-04-18 08:04 20.81346 106.71138 21 ft 18 kts 252°
2026-04-18 08:05 20.81310 106.71014 21 ft 17 kts 252°
2026-04-18 08:05 20.81309 106.70897 21 ft 16 kts 300°
2026-04-18 08:05 20.81370 106.70834 21 ft 10 kts 15°
2026-04-18 08:05 20.81373 106.70889 21 ft 10 kts 144°
2026-04-18 08:06 20.81314 106.70921 21 ft 9 kts 149°
2026-04-18 08:06 20.81299 106.70981 21 ft 7 kts 74°
2026-04-18 08:06 20.81312 106.71026 21 ft 6 kts 73°
2026-04-18 08:06 20.81325 106.71075 21 ft 10 kts 72°
2026-04-18 08:07 20.81366 106.71209 21 ft 35 kts 73°
2026-04-18 08:07 20.81511 106.71699 21 ft 103 kts 71°
2026-04-18 08:07 20.81795 106.72647 37 ft 161 kts 72°
2026-04-18 08:07 20.82155 106.73854 679 ft 168 kts 73°
2026-04-18 08:08 20.82456 106.75026 1619 ft 165 kts 83°
2026-04-18 08:08 20.82282 106.76249 2068 ft 175 kts 116°
2026-04-18 08:08 20.81503 106.77335 2379 ft 194 kts 135°
2026-04-18 08:08 20.80513 106.78429 2646 ft 216 kts 133°
2026-04-18 08:09 20.79441 106.79669 2893 ft 236 kts 133°
2026-04-18 08:09 20.78298 106.80985 3386 ft 243 kts 133°
2026-04-18 08:09 20.77137 106.82315 3992 ft 246 kts 134°
2026-04-18 08:09 20.75977 106.83640 4565 ft 250 kts 134°
2026-04-18 08:10 20.74750 106.85039 4918 ft 268 kts 134°
2026-04-18 08:10 20.73452 106.86514 5517 ft 275 kts 134°
2026-04-18 08:10 20.72121 106.88027 6230 ft 279 kts 135°
2026-04-18 08:10 20.70775 106.89558 6922 ft 284 kts 135°
2026-04-18 08:11 20.69413 106.91106 7614 ft 289 kts 135°
2026-04-18 08:11 20.68040 106.92663 8281 ft 294 kts 135°
2026-04-18 08:11 20.66563 106.94196 8954 ft 297 kts 144°
2026-04-18 08:11 20.64712 106.95175 9630 ft 298 kts 167°
2026-04-18 08:12 20.62663 106.95453 10327 ft 299 kts 181°
2026-04-18 08:12 20.60552 106.95392 10883 ft 310 kts 185°
2026-04-18 08:12 20.58330 106.95237 11183 ft 329 kts 187°
2026-04-18 08:12 20.56007 106.95070 11443 ft 348 kts 186°
2026-04-18 08:13 20.53521 106.94911 11718 ft 365 kts 186°
2026-04-18 08:13 20.50942 106.94760 12213 ft 374 kts 185°
2026-04-18 08:13 20.48335 106.94618 12870 ft 378 kts 185°
2026-04-18 08:13 20.45685 106.94482 13531 ft 382 kts 185°
2026-04-18 08:14 20.43016 106.94349 14195 ft 385 kts 185°
2026-04-18 08:14 20.40321 106.94219 14841 ft 389 kts 185°
2026-04-18 08:14 20.37631 106.94091 15471 ft 392 kts 185°
2026-04-18 08:14 20.34886 106.93962 16095 ft 396 kts 184°
2026-04-18 08:15 20.32126 106.93834 16693 ft 400 kts 184°
2026-04-18 08:15 20.29325 106.93704 17271 ft 403 kts 184°
2026-04-18 08:15 20.26510 106.93574 17835 ft 406 kts 184°
2026-04-18 08:15 20.23679 106.93445 18376 ft 410 kts 184°
2026-04-18 08:16 20.20812 106.93313 18892 ft 413 kts 184°
2026-04-18 08:16 20.17922 106.93181 19400 ft 417 kts 184°
2026-04-18 08:16 20.15004 106.93048 19891 ft 420 kts 185°
2026-04-18 08:16 20.12071 106.92915 20367 ft 423 kts 184°
2026-04-18 08:17 20.09156 106.92782 20820 ft 426 kts 185°
2026-04-18 08:17 20.06181 106.92646 21268 ft 430 kts 185°
2026-04-18 08:17 20.03172 106.92509 21707 ft 432 kts 185°
2026-04-18 08:17 20.00157 106.92373 22131 ft 435 kts 185°
2026-04-18 08:18 19.97122 106.92235 22521 ft 438 kts 185°
2026-04-18 08:18 19.94057 106.92096 22914 ft 441 kts 185°
2026-04-18 08:18 19.90983 106.91956 23296 ft 444 kts 185°
2026-04-18 08:18 19.87884 106.91815 23666 ft 446 kts 185°
2026-04-18 08:19 19.84770 106.91674 24025 ft 449 kts 185°
2026-04-18 08:19 19.81642 106.91532 24386 ft 451 kts 185°
2026-04-18 08:19 19.78494 106.91390 24739 ft 453 kts 185°
2026-04-18 08:19 19.75381 106.91249 25081 ft 455 kts 185°
2026-04-18 08:20 19.72172 106.91103 25417 ft 457 kts 185°
2026-04-18 08:20 19.69029 106.90961 25752 ft 459 kts 185°
2026-04-18 08:20 19.65828 106.90816 26081 ft 460 kts 185°
2026-04-18 08:20 19.62616 106.90671 26405 ft 462 kts 185°
2026-04-18 08:21 19.59383 106.90525 26722 ft 464 kts 185°
2026-04-18 08:21 19.56189 106.90380 27015 ft 466 kts 185°
2026-04-18 08:21 19.52945 106.90234 27316 ft 467 kts 185°
2026-04-18 08:21 19.49687 106.90087 27614 ft 469 kts 185°
2026-04-18 08:22 19.46416 106.89939 27887 ft 471 kts 185°
2026-04-18 08:22 19.43144 106.89791 28174 ft 472 kts 185°
2026-04-18 08:22 19.39851 106.89642 28439 ft 474 kts 185°
2026-04-18 08:22 19.36540 106.89493 28714 ft 475 kts 185°
2026-04-18 08:23 19.33230 106.89344 28978 ft 477 kts 185°
2026-04-18 08:23 19.29905 106.89194 29247 ft 477 kts 185°
2026-04-18 08:23 19.26639 106.89047 29633 ft 475 kts 186°
2026-04-18 08:23 19.23326 106.88898 30040 ft 473 kts 186°
2026-04-18 08:24 19.20043 106.88750 30426 ft 472 kts 186°
2026-04-18 08:24 19.16763 106.88603 30805 ft 471 kts 186°
2026-04-18 08:24 19.13490 106.88455 31199 ft 469 kts 186°
2026-04-18 08:24 19.10240 106.88309 31603 ft 467 kts 186°
2026-04-18 08:25 19.06994 106.88163 31976 ft 465 kts 186°
2026-04-18 08:25 19.03764 106.88018 32367 ft 464 kts 186°
2026-04-18 08:25 19.00547 106.87874 32732 ft 462 kts 186°
2026-04-18 08:25 18.97345 106.87730 33134 ft 460 kts 187°
2026-04-18 08:26 18.94187 106.87588 33516 ft 458 kts 187°
2026-04-18 08:26 18.91004 106.87446 33878 ft 457 kts 187°
2026-04-18 08:26 18.87824 106.87424 34239 ft 459 kts 181°
2026-04-18 08:26 18.84641 106.87859 34547 ft 464 kts 173°
2026-04-18 08:27 18.81525 106.88763 34857 ft 469 kts 166°
2026-04-18 08:27 18.78445 106.90033 35219 ft 470 kts 162°
2026-04-18 08:27 18.75493 106.91428 35521 ft 471 kts 160°
2026-04-18 08:27 18.72512 106.92857 35813 ft 471 kts 161°
2026-04-18 08:28 18.69504 106.94277 35849 ft 473 kts 161°
2026-04-18 08:28 18.63488 106.97086 35849 ft 471 kts 161°
2026-04-18 08:29 18.57510 106.99865 35848 ft 469 kts 161°
2026-04-18 08:29 18.51529 107.02644 35847 ft 469 kts 161°
2026-04-18 08:30 18.45553 107.05419 35847 ft 469 kts 161°
2026-04-18 08:30 18.39582 107.08191 35846 ft 469 kts 161°
2026-04-18 08:31 18.33649 107.10953 35846 ft 469 kts 161°
2026-04-18 08:31 18.27667 107.13732 35848 ft 469 kts 161°
2026-04-18 08:32 18.21703 107.16497 35848 ft 468 kts 161°
2026-04-18 08:32 18.15724 107.19266 35848 ft 468 kts 161°
2026-04-18 08:33 18.09758 107.22027 35848 ft 468 kts 161°
2026-04-18 08:33 18.03837 107.24799 35848 ft 469 kts 160°
2026-04-18 08:34 17.97895 107.27625 35848 ft 469 kts 160°
2026-04-18 08:34 17.91931 107.30456 35848 ft 470 kts 160°
2026-04-18 08:35 17.85977 107.33279 35848 ft 469 kts 160°
2026-04-18 08:35 17.80016 107.36104 35848 ft 470 kts 160°
2026-04-18 08:36 17.74087 107.38916 35848 ft 470 kts 160°
2026-04-18 08:36 17.68132 107.41743 35848 ft 470 kts 160°
2026-04-18 08:37 17.62169 107.44567 35848 ft 470 kts 160°
2026-04-18 08:37 17.56214 107.47384 35848 ft 470 kts 160°
2026-04-18 08:38 17.50249 107.50203 35848 ft 469 kts 160°
2026-04-18 08:38 17.44288 107.53019 35848 ft 470 kts 160°
2026-04-18 08:39 17.38349 107.55828 35846 ft 470 kts 160°
2026-04-18 08:39 17.32367 107.58649 35842 ft 470 kts 160°
2026-04-18 08:40 17.26393 107.61463 35842 ft 471 kts 160°
2026-04-18 08:40 17.20413 107.64277 35842 ft 471 kts 160°
2026-04-18 08:41 17.14457 107.67078 35843 ft 471 kts 160°
2026-04-18 08:41 17.08482 107.69947 35852 ft 472 kts 160°
2026-04-18 08:42 17.02550 107.72831 35853 ft 473 kts 159°
2026-04-18 08:42 16.96585 107.75732 35853 ft 473 kts 159°
2026-04-18 08:43 16.90611 107.78632 35853 ft 473 kts 159°
2026-04-18 08:43 16.84616 107.81535 35853 ft 474 kts 159°
2026-04-18 08:44 16.78623 107.84435 35853 ft 475 kts 159°
2026-04-18 08:44 16.72660 107.87318 35852 ft 475 kts 159°
2026-04-18 08:45 16.66652 107.90228 35852 ft 475 kts 159°
2026-04-18 08:45 16.60653 107.93133 35853 ft 476 kts 159°
2026-04-18 08:46 16.54642 107.96041 35853 ft 476 kts 159°
2026-04-18 08:46 16.48655 107.98930 35855 ft 477 kts 159°
2026-04-18 08:47 16.42620 108.01839 35857 ft 477 kts 159°
2026-04-18 08:47 16.37602 108.04257 35859 ft 477 kts 159°
2026-04-18 08:48 16.31577 108.07168 35862 ft 478 kts 159°
2026-04-18 08:48 16.25548 108.10075 35867 ft 478 kts 159°
2026-04-18 08:49 16.19511 108.12979 35871 ft 477 kts 159°
2026-04-18 08:49 16.13477 108.15879 35873 ft 477 kts 159°
2026-04-18 08:50 16.07383 108.18587 35874 ft 473 kts 167°
2026-04-18 08:50 16.00999 108.19733 35876 ft 464 kts 182°
2026-04-18 08:51 15.94570 108.19666 35876 ft 461 kts 186°
2026-04-18 08:51 15.88135 108.19475 35875 ft 462 kts 186°
2026-04-18 08:52 15.81700 108.19319 35875 ft 462 kts 185°
2026-04-18 08:52 15.75304 108.19175 35875 ft 462 kts 185°
2026-04-18 08:53 15.68875 108.19034 35874 ft 461 kts 185°
2026-04-18 08:53 15.62459 108.18894 35874 ft 461 kts 185°
2026-04-18 08:54 15.56030 108.18756 35873 ft 461 kts 185°
2026-04-18 08:54 15.49642 108.18618 35872 ft 462 kts 185°
2026-04-18 08:55 15.43216 108.18479 35871 ft 461 kts 185°
2026-04-18 08:55 15.36789 108.18341 35870 ft 461 kts 185°
2026-04-18 08:56 15.30347 108.18202 35869 ft 461 kts 185°
2026-04-18 08:56 15.23974 108.18065 35868 ft 461 kts 185°
2026-04-18 08:57 15.14762 108.17867 35866 ft 461 kts 185°
2026-04-18 08:57 15.08339 108.17730 35872 ft 460 kts 185°
2026-04-18 08:58 15.01942 108.17588 35872 ft 460 kts 185°
2026-04-18 08:58 14.95532 108.17447 35871 ft 460 kts 184°
2026-04-18 08:59 14.89129 108.17306 35871 ft 460 kts 184°
2026-04-18 08:59 14.82771 108.17165 35870 ft 459 kts 184°
2026-04-18 09:00 14.76364 108.17024 35870 ft 459 kts 184°
2026-04-18 09:00 14.69961 108.16882 35869 ft 459 kts 184°
2026-04-18 09:01 14.63565 108.16741 35872 ft 459 kts 184°
2026-04-18 09:01 14.57175 108.16600 35866 ft 459 kts 184°
2026-04-18 09:02 14.50824 108.16460 35863 ft 459 kts 184°
2026-04-18 09:02 14.44439 108.16320 35863 ft 458 kts 184°
2026-04-18 09:03 14.38051 108.16180 35863 ft 458 kts 184°
2026-04-18 09:03 14.31669 108.16039 35862 ft 458 kts 184°
2026-04-18 09:04 14.25284 108.15901 35862 ft 458 kts 184°
2026-04-18 09:04 14.18943 108.15765 35862 ft 458 kts 184°
2026-04-18 09:05 14.12550 108.15629 35862 ft 459 kts 184°
2026-04-18 09:05 14.06164 108.15493 35862 ft 458 kts 184°
2026-04-18 09:06 13.99785 108.15357 35862 ft 458 kts 184°
2026-04-18 09:06 13.93409 108.15217 35861 ft 458 kts 184°
2026-04-18 09:07 13.87071 108.15078 35861 ft 459 kts 184°
2026-04-18 09:07 13.80621 108.14936 35862 ft 466 kts 184°
2026-04-18 09:08 13.74127 108.14794 35861 ft 465 kts 184°
2026-04-18 09:08 13.67692 108.14653 35861 ft 464 kts 184°
2026-04-18 09:09 13.61182 108.14510 35861 ft 465 kts 184°
2026-04-18 09:09 13.54756 108.14369 35851 ft 465 kts 184°
2026-04-18 09:10 13.48282 108.14228 35850 ft 465 kts 184°
2026-04-18 09:10 13.41819 108.14086 35851 ft 464 kts 184°
2026-04-18 09:11 13.35340 108.13945 35593 ft 467 kts 184°
2026-04-18 09:11 13.32093 108.13871 34952 ft 466 kts 185°
2026-04-18 09:11 13.28842 108.13792 34180 ft 467 kts 185°
2026-04-18 09:12 13.25589 108.13714 33398 ft 468 kts 184°
2026-04-18 09:12 13.22328 108.13635 32597 ft 469 kts 184°
2026-04-18 09:12 13.19098 108.13558 31787 ft 470 kts 184°
2026-04-18 09:12 13.15822 108.13479 30946 ft 471 kts 184°
2026-04-18 09:13 13.12534 108.13400 30151 ft 471 kts 184°
2026-04-18 09:13 13.09265 108.13322 29516 ft 467 kts 183°
2026-04-18 09:13 13.06024 108.13244 28904 ft 464 kts 183°
2026-04-18 09:13 13.02812 108.13167 28297 ft 460 kts 183°
2026-04-18 09:14 12.99620 108.13090 27693 ft 456 kts 183°
2026-04-18 09:14 12.96487 108.13015 27096 ft 453 kts 183°
2026-04-18 09:14 12.93342 108.12939 26494 ft 450 kts 183°
2026-04-18 09:14 12.90218 108.12864 25896 ft 446 kts 183°
2026-04-18 09:15 12.88547 108.12824 25574 ft 445 kts 183°
2026-04-18 09:15 12.86955 108.12786 25267 ft 443 kts 183°
2026-04-18 09:15 12.83906 108.12713 24677 ft 440 kts 183°
2026-04-18 09:15 12.80836 108.12639 24080 ft 437 kts 183°
2026-04-18 09:16 12.77993 108.12571 23524 ft 434 kts 183°
2026-04-18 09:16 12.75066 108.12501 22937 ft 431 kts 183°
2026-04-18 09:16 12.74434 108.12486 22813 ft 430 kts 183°
2026-04-18 09:16 12.72206 108.12433 22377 ft 428 kts 183°
2026-04-18 09:17 12.69237 108.12362 21797 ft 425 kts 183°
2026-04-18 09:17 12.66287 108.12294 21216 ft 421 kts 182°
2026-04-18 09:17 12.63400 108.12326 20644 ft 419 kts 179°
2026-04-18 09:17 12.60494 108.12476 20066 ft 416 kts 178°
2026-04-18 09:18 12.57613 108.12635 19490 ft 412 kts 179°
2026-04-18 09:18 12.54757 108.12766 18917 ft 409 kts 179°
2026-04-18 09:18 12.51920 108.12886 18348 ft 405 kts 179°
2026-04-18 09:18 12.49113 108.13001 17783 ft 402 kts 179°
2026-04-18 09:19 12.46326 108.13113 17222 ft 399 kts 178°
2026-04-18 09:19 12.43570 108.13224 16699 ft 395 kts 178°
2026-04-18 09:19 12.40856 108.13332 16478 ft 383 kts 178°
2026-04-18 09:19 12.38270 108.13436 16326 ft 371 kts 178°
2026-04-18 09:20 12.35710 108.13538 16004 ft 365 kts 178°
2026-04-18 09:20 12.33176 108.13639 15567 ft 362 kts 178°
2026-04-18 09:20 12.30669 108.13739 15094 ft 361 kts 178°
2026-04-18 09:20 12.28178 108.13839 14435 ft 350 kts 178°
2026-04-18 09:21 12.25776 108.13935 13438 ft 350 kts 178°
2026-04-18 09:21 12.23362 108.14031 12833 ft 346 kts 178°
2026-04-18 09:21 12.20949 108.14128 12566 ft 348 kts 178°
2026-04-18 09:21 12.18522 108.14224 12334 ft 349 kts 178°
2026-04-18 09:22 12.16110 108.14318 11761 ft 342 kts 178°
2026-04-18 09:22 12.13759 108.14410 11226 ft 332 kts 178°
2026-04-18 09:22 12.11506 108.14498 10806 ft 316 kts 178°
2026-04-18 09:22 12.09362 108.14581 10499 ft 299 kts 178°
2026-04-18 09:23 12.07314 108.14661 10218 ft 293 kts 178°
2026-04-18 09:23 12.05289 108.14740 9943 ft 294 kts 178°
2026-04-18 09:23 12.03254 108.14819 9785 ft 293 kts 178°
2026-04-18 09:23 12.01201 108.14899 9522 ft 295 kts 178°
2026-04-18 09:24 11.99158 108.14979 9249 ft 293 kts 178°
2026-04-18 09:24 11.97125 108.15058 8974 ft 290 kts 178°
2026-04-18 09:24 11.95120 108.15136 8702 ft 287 kts 178°
2026-04-18 09:24 11.93134 108.15213 8430 ft 284 kts 178°
2026-04-18 09:25 11.91164 108.15291 8155 ft 281 kts 178°
2026-04-18 09:25 11.89232 108.15366 7894 ft 280 kts 178°
2026-04-18 09:25 11.87284 108.15443 7634 ft 278 kts 178°
2026-04-18 09:25 11.85357 108.15519 7384 ft 275 kts 178°
2026-04-18 09:26 11.83457 108.15594 7110 ft 271 kts 178°
2026-04-18 09:26 11.81597 108.15673 6878 ft 265 kts 177°
2026-04-18 09:26 11.79795 108.15777 6605 ft 257 kts 176°
2026-04-18 09:26 11.78070 108.15876 6326 ft 239 kts 176°
2026-04-18 09:27 11.76485 108.16115 6035 ft 223 kts 161°
2026-04-18 09:27 11.75326 108.17046 5791 ft 210 kts 123°
2026-04-18 09:27 11.74830 108.18420 5746 ft 205 kts 103°
2026-04-18 09:27 11.74678 108.19856 5683 ft 202 kts 94°
2026-04-18 09:28 11.74613 108.21290 5606 ft 203 kts 93°
2026-04-18 09:28 11.74616 108.22734 5414 ft 203 kts 89°
2026-04-18 09:28 11.74675 108.24151 5158 ft 201 kts 88°
2026-04-18 09:28 11.74746 108.25571 4889 ft 199 kts 88°
2026-04-18 09:29 11.74819 108.26972 4624 ft 198 kts 88°
2026-04-18 09:29 11.74893 108.28368 4374 ft 194 kts 88°
2026-04-18 09:29 11.74963 108.29700 4147 ft 182 kts 88°
2026-04-18 09:29 11.75030 108.30946 3890 ft 170 kts 88°
2026-04-18 09:30 11.75092 108.32110 3652 ft 160 kts 88°
2026-04-18 09:30 11.75151 108.33230 3449 ft 156 kts 87°
2026-04-18 09:30 11.75211 108.34322 3250 ft 153 kts 87°
2026-04-18 09:30 11.75265 108.35370 3165 ft 133 kts 87°
2026-04-18 09:31 11.75300 108.36090 3164 ft 74 kts 86°
2026-04-18 09:31 11.75317 108.36374 3164 ft 57 kts 87°
2026-04-18 09:31 11.75336 108.36749 3164 ft 10 kts 88°
2026-04-18 09:31 11.75311 108.36785 3164 ft 10 kts 146°
2026-04-18 09:32 11.75239 108.36800 3164 ft 12 kts 176°
2026-04-18 09:32 11.75131 108.36806 3164 ft 11 kts 177°
2026-04-18 09:32 11.75081 108.36798 3164 ft 11 kts 229°
2026-04-18 09:32 11.75021 108.36775 3164 ft 5 kts 176°
2026-04-18 09:33 11.75007 108.36776 3164 ft 2 kts 176°
2026-04-18 09:33 11.74999 108.36776 3164 ft 1 kts 176°